Tacoma Narrows, WA
on Wednesday, November 14, 2012

Wednesday
Previous Day Next Day
Daily Summary
 ActualAverageRecord
Temperature
Mean Temperature °F °F  
Max Temperature 50°F 49°F 61°F (2001)
Min Temperature 43°F 40°F 36°F (2005)
Degree Days
Heating Degree Days 18    
Moisture
Dew Point 45°F   
Average Humidity 89    
Maximum Humidity 93    
Minimum Humidity 80    
Precipitation
Precipitation 0.02 in in in ()
Wind
Wind Speed 5 mph   
Max Wind Speed 8 mph   
Max Gust Speed mph   
Visibility 9 miles   
Events Rain   
Averages and records for this station are not official NWS values.
Key: T is trace of precipitation, MM is missing value
Source: NWS Daily Summary
Seasonal Weather Averages
Time(PST)TemperatureDew PointHumidity Pressure Visibility Wind DirectionWind SpeedGust SpeedPrecipitationEvents Conditions
12:31 AM 48.2°F 46.4°F 93% 30.19 in 10.0 miles SSW 5.8 mph - 0.00 in   Overcast
12:44 AM 48.2°F 46.4°F 93% 30.19 in 10.0 miles South 4.6 mph - 0.00 in   Overcast
12:53 AM 48.9°F 46.9°F 93% 30.19 in 10.0 miles South 5.8 mph - 0.00 in   Overcast
1:27 AM 48.2°F 46.4°F 93% 30.20 in 10.0 miles SSW 5.8 mph - N/A   Mostly Cloudy
1:39 AM 48.2°F 44.6°F 87% 30.20 in 10.0 miles SW 6.9 mph - N/A   Partly Cloudy
1:53 AM 48.0°F 45.0°F 89% 30.20 in 10.0 miles SSW 4.6 mph - N/A   Mostly Cloudy
2:15 AM 48.2°F 46.4°F 93% 30.20 in 10.0 miles SSW 8.1 mph - N/A   Mostly Cloudy
2:42 AM 48.2°F 46.4°F 93% 30.20 in 6.0 miles SW 5.8 mph - N/A   Mostly Cloudy
2:53 AM 48.9°F 46.9°F 93% 30.21 in 7.0 miles SSW 5.8 mph - N/A   Overcast
3:17 AM 48.2°F 46.4°F 93% 30.21 in 10.0 miles South 5.8 mph - N/A   Overcast
3:53 AM 48.9°F 46.0°F 90% 30.21 in 10.0 miles South 8.1 mph - N/A   Overcast
4:53 AM 48.0°F 45.0°F 89% 30.22 in 10.0 miles SSW 6.9 mph - N/A   Overcast
5:12 AM 48.2°F 44.6°F 87% 30.22 in 10.0 miles SSW 5.8 mph - N/A   Overcast
5:53 AM 48.0°F 45.0°F 89% 30.24 in 10.0 miles Calm Calm - 0.00 in Rain Light Rain
6:21 AM 48.2°F 44.6°F 87% 30.24 in 10.0 miles SW 3.5 mph - 0.00 in   Overcast
6:53 AM 48.0°F 45.0°F 89% 30.25 in 7.0 miles SW 3.5 mph - 0.01 in Rain Light Rain
7:03 AM 48.2°F 46.4°F 93% 30.25 in 6.0 miles Calm Calm - 0.00 in Rain Light Rain
7:12 AM 48.2°F 44.6°F 87% 30.25 in 7.0 miles Calm Calm - 0.00 in Rain Light Rain
7:53 AM 46.9°F 45.0°F 93% 30.27 in 10.0 miles Calm Calm - 0.00 in   Mostly Cloudy
8:53 AM 48.9°F 46.0°F 90% 30.29 in 10.0 miles Calm Calm - N/A   Overcast
9:53 AM 48.0°F 46.0°F 93% 30.30 in 10.0 miles NW 3.5 mph - N/A   Overcast
10:53 AM 48.9°F 45.0°F 86% 30.32 in 10.0 miles North 3.5 mph - N/A   Overcast
11:53 AM 48.9°F 45.0°F 86% 30.32 in 10.0 miles North 5.8 mph - N/A   Overcast
12:53 PM 48.9°F 45.0°F 86% 30.31 in 10.0 miles NE 3.5 mph - N/A   Overcast
1:53 PM 50.0°F 45.0°F 83% 30.31 in 10.0 miles North 5.8 mph - N/A   Overcast
2:53 PM 48.9°F 44.1°F 83% 30.31 in 10.0 miles North 3.5 mph - N/A   Overcast
3:53 PM 48.9°F 43.0°F 80% 30.31 in 10.0 miles North 3.5 mph - N/A   Overcast
4:53 PM 48.0°F 42.1°F 80% 30.31 in 10.0 miles North 8.1 mph - N/A   Mostly Cloudy
5:53 PM 46.9°F 42.1°F 83% 30.31 in 10.0 miles NNE 4.6 mph - N/A   Scattered Clouds
6:53 PM 46.0°F 42.1°F 86% 30.31 in 10.0 miles NNE 5.8 mph - N/A   Clear
7:53 PM 46.0°F 42.1°F 86% 30.31 in 10.0 miles NNE 6.9 mph - N/A   Clear
8:53 PM 46.0°F 42.1°F 86% 30.31 in 10.0 miles NNE 5.8 mph - N/A   Clear
9:53 PM 45.0°F 42.1°F 90% 30.30 in 10.0 miles Calm Calm - N/A   Clear
10:53 PM 43.0°F 39.9°F 89% 30.28 in 10.0 miles North 6.9 mph - N/A   Clear
11:53 PM 44.1°F 42.1°F 93% 30.28 in 7.0 miles Calm Calm - 0.01 in   Partly Cloudy
Moon Phase
Nov. 14 Nov. 20 Nov. 28 Dec. 06 Dec. 13
Sunrise:07:13 AM (PST) Moon Rise:08:13 AM (PST)11/14
Sunset:04:35 PM (PST) Moon Set:05:24 PM (PST)11/14

Copyright © 2014 The Weather Underground, Inc.